Regional Weather Roundup
Issued by NWS

Home | Current Version | Previous Version | Text Only | Print | Product List | Glossary Off
Versions: 1 2 3 4 5 6 7 8 9 10 11 12 13 14 15 16 17 18 19 20 21 22 23 24 25 26 27 28 29 30 31 32 33 34 35 36 37 38 39 40 41 42 43 44 45 46 47 48

000
ASUS45 KCYS 011110
RWRWY

WYOMING REGIONAL WEATHER ROUNDUP
NATIONAL WEATHER SERVICE CHEYENNE WY
500 AM MDT WED OCT 01 2014

NOTE:  "FAIR" INDICATES FEW OR NO CLOUDS BELOW 12,000 FEET
WITH NO SIGNIFICANT WEATHER AND/OR OBSTRUCTIONS TO VISIBILITY.

WYZ001-011200-
YELLOWSTONE NATIONAL PARK

CITY           SKY/WX    TMP DP  RH WIND       PRES   REMARKS
LK YELLOWSTONE   N/A     31  29  92 CALM      29.98R
W YELLOWSTONE  NOT AVBL

$$
WYZ002>013-054>058-071-098>099-011200-
NORTHERN WYOMING

CITY           SKY/WX    TMP DP  RH WIND       PRES   REMARKS
JACKSON        CLOUDY    37  36  93 N5        29.95R WCI  34
CODY           CLOUDY    45  43  93 CALM      29.89S
GREYBULL       CLOUDY    49  43  80 W10       29.85R
WORLAND        LGT RAIN  46  43  89 SW9       29.87R
SHERIDAN       LGT RAIN  47  42  83 NW13      29.87R
BUFFALO        LGT RAIN  45  39  79 N18G28    29.88R
GILLETTE       CLOUDY    46  43  89 NW12      29.83S
HULETT         PTSUNNY   50  45  81 W6        29.83
NEWCASTLE      CLOUDY    46  45  93 W5        29.85

$$
WYZ014>020-022>026-101>103-011200-
CENTRAL WYOMING

CITY           SKY/WX    TMP DP  RH WIND       PRES   REMARKS
BIG PINEY      CLEAR     28  23  81 NW8       29.97R WCI  20
PINEDALE       MOSUNNY   30  30 100 W5        29.97R WCI  25
DUBOIS         FAIR      34  28  80 NW10G16   29.90S WCI  26
LANDER         MOCLDY    41  37  86 W5        29.90R
RIVERTON       MOCLDY    41  36  82 N9        29.89R
CASPER         CLOUDY    49  39  68 S5        29.86R
DOUGLAS        CLOUDY    49  43  80 N5        29.88R

$$
WYZ021-027>030-104>119-011200-
SOUTHERN WYOMING

CITY           SKY/WX    TMP DP  RH WIND       PRES   REMARKS
EVANSTON       FOG       37  36  96 W7        29.98S VSB 1   WCI  32
KEMMERER       MOSUNNY   32  32 100 NW7       29.98S WCI  26
FORT BRIDGER     N/A     36  36  99 W7        30.00S WCI  31
ROCK SPRINGS   MOCLDY    37  34  89 W9        29.96F WCI  30
DIXON          CLOUDY    42  40  94 NE3       29.98F
RAWLINS        PTCLDY    38  34  85 SW13      29.94S WCI  30
SARATOGA       FAIR      37  34  87 CALM      29.96S
LARAMIE        CLOUDY    42  34  73 SW14      29.93S
CHEYENNE       CLOUDY    50  34  54 NW6       29.91R
TORRINGTON     CLEAR     45  42  89 W8        29.84R
PINE BLUFFS    FAIR      37  36  93 W5        29.89R WCI  34

$$



USA.gov is the U.S. government's official web portal to all federal, state and local government web resources and services.